Погода в Сикирресе

Коста-Рика     10°05′51″N   83°30′22″W
темп.,
°C
ветер,
м/с
пор.,
м/с
влажн.,
%
обл.,
%
осадки,
мм/ч
давл.,
гПа
погр.,
м
25 февраля, чт
чт2500:00+19ююз229074 0.2 101356
03:00+19ююз2378100 0.0 101187
06:00+20ююз2374100 0.1 101396
09:00+23всв1283100 0.9 1014392
12:00+20с1298100 6.1 1013216
15:00+23всв128694 1.3 1011457
18:00+19вюв019782 1.9 101227
21:00+18ююз229674 0.1 101441
26 февраля, пт
пт2600:00+18ююз239479 0.1 101365
03:00+17ююз239184 0.0 101171
06:00+17ююз338759 0.0 101276
09:00+27в12540 0.0 1013943
12:00+28св33525 0.1 10121441
15:00+26св336144 0.4 10091135
18:00+20св119450 0.7 101025
21:00+19ююз229333 0.1 101239
27 февраля, сб
сб2700:00+21ююз228251 0.1 101272
03:00+20ююз228178 0.1 101163
06:00+19ююз229689 1.7 101161
09:00+21юз1193100 0.8 1013109
12:00+23всв238890 3.1 1011517
15:00+22св239282 3.1 1009488
18:00+20св119987 5.2 1011131
21:00+18юз129864 0.2 101237
28 февраля, вс
вс2800:00+18ююз229770 0.6 101232
03:00+18ююз129768 0.4 101034
06:00+17ююз239663 0.7 101154
09:00+25всв126642 0.1 1013794
12:00+25всв346738 0.8 10111019
15:00+25всв346556 0.8 10091096
18:00+19в019168 1.3 101024
21:00+18ююз238916 0.0 101285
1 марта, пн
пн100:00+18ююз228610 0.0 101157
03:00+19юз227676 0.0 101066
06:00+18ю128585 0.6 101140
09:00+19ююз2390100 1.6 1013185
12:00+27св235776 2.0 10111254
15:00+24св347949 1.5 1009772
18:00+19в019746 2.9 101037
21:00+18ююз229623 0.3 101245